Regional Weather Roundup
Issued by NWS Memphis, TN

Home | Current Version | Previous Version | Text Only | Print | Product List | Glossary On
Versions: 1 2 3 4 5 6 7 8 9 10 11 12 13 14 15 16 17 18 19 20 21 22 23 24 25 26 27 28 29 30 31 32 33 34 35 36 37 38 39 40 41 42 43 44 45 46 47 48 49 50
000
ASUS44 KMEG 272110
RWRMEG
MEMPHIS CWA HOURLY WEATHER ROUNDUP
NATIONAL WEATHER SERVICE MEMPHIS TN
300 PM CST MON FEB 27 2017

...WEST TENNESSEE...

CITY           SKY/WX    TMP DP  RH WIND       PRES   REMARKS
MEMPHIS INTL   MOSUNNY   66  51  58 S8        30.09S
NWS MEMPHIS      N/A     67 N/A N/A MISG        N/A
JACKSON        SUNNY     63  48  58 SE6       30.11S
BOLIVAR        SUNNY     63  48  59 SE9       30.10S
SAVANNAH       SUNNY     61  46  59 SE7       30.12F
UNION CITY     MOSUNNY   64  45  48 S6G15     30.07F
PARIS          SUNNY     63  46  55 S8        30.10F
HUNTINGDON     SUNNY     64  46  52 S10       30.09F


...EASTERN ARKANSAS...

CITY           SKY/WX    TMP DP  RH WIND       PRES   REMARKS
JONESBORO      CLOUDY    59  51  75 S13       30.08S
WEST MEMPHIS   SUNNY     64  53  67 S12       30.08S
BATESVILLE     CLOUDY    57  50  77 E8        30.06F
NEWPORT        MOSUNNY   58  52  80 MISG      30.08F
WALNUT RIDGE   CLOUDY    61  48  63 S18       30.07S
BLYTHEVILLE    SUNNY     66  50  56 S9        30.08S
SEARCY         CLOUDY    57  53  86 S8        30.09F
STUTTGART      CLOUDY    59  48  67 S13G20    30.09F
PINE BLUFF     CLOUDY    61  55  81 SE12      30.06F
MONTICELLO     CLOUDY    56  54  93 E6        30.07F


...NORTH MISSISSIPPI...

CITY           SKY/WX    TMP DP  RH WIND       PRES   REMARKS
TUPELO         CLOUDY    59  50  72 SE8       30.14S
OXFORD         CLOUDY    57  48  72 S9        30.14R
BATESVILLE     MOSUNNY   59  51  75 SE5       30.13R
OLIVE BRANCH   MOSUNNY  N/A N/A N/A S10       30.08F
TUNICA         MOSUNNY   63  52  67 S14       30.12R
CORINTH        CLOUDY    61  48  63 S7        30.12S
GREENWOOD      LGT RAIN  58  53  84 CALM      30.14R
COLUMBUS       CLOUDY    57  52  84 S3        30.14S
STARKVILLE     LGT RAIN  54  52  94 SW5       30.19R
GOLDEN TRIANGL CLOUDY    55  48  76 CALM      30.12


...SOUTHEAST MISSOURI...

CITY           SKY/WX    TMP DP  RH WIND       PRES   REMARKS
KENNETT        PTSUNNY   64  52  63 S12       30.07R
MALDEN         MOSUNNY   63  50  63 S10       30.07F
WEST PLAINS    MOSUNNY   64  42  44 S10       30.00F
POPLAR BLUFF   MOSUNNY   62  51  67 S10       30.05F
CAPE GIRARDEAU MOSUNNY   62  48  60 S12G18    30.07F


...NORTHWEST ALABAMA...

CITY           SKY/WX    TMP DP  RH WIND       PRES   REMARKS
MUSCLE SHOALS  MOSUNNY   60  47  61 SE7       30.16S


...MIDDLE TENNESSEE...

CITY           SKY/WX    TMP DP  RH WIND       PRES   REMARKS
NASHVILLE      MOSUNNY   61  40  45 S13G20    30.16F
CLARKSVILLE    MOSUNNY   64  43  46 S7        30.12F
COLUMBIA       SUNNY     59  48  67 S7        30.13F


...WESTERN KENTUCKY...

CITY           SKY/WX    TMP DP  RH WIND       PRES   REMARKS
PADUCAH        MOSUNNY   65  46  50 SW9G20    30.08F
FORT CAMPBELL  SUNNY     65  44  46 S10       30.11F


...CENTRAL ARKANSAS...

CITY           SKY/WX    TMP DP  RH WIND       PRES   REMARKS
LITTLE ROCK    CLOUDY    57  55  93 SE9       30.06F


SKY/WX REPORTED AS FAIR MEANS FEW OR NO CLOUDS BELOW
12 THOUSAND FEET.





USA.gov is the U.S. government's official web portal to all federal, state and local government web resources and services.